6 de julio de 2022

Hora Código Tiempo Temp. Visibilidad Cielo nuboso Viento METAR/SPECI
7:00 p. m.
V
79 °F 6¼ mi+ 3.000 ft Var Var 3 kt METAR AYPY 060900Z VRB03KT 9999 FEW020 BKN030 26/25 Q1010
6:00 p. m.
V
79 °F 6¼ mi+ 3.000 ft 190° 190° 5 kt METAR AYPY 060800Z 19005KT 9999 RASH FEW020 BKN030 26/25 Q1010
5:00 p. m.
V
81 °F 6¼ mi+ 3.000 ft 160° 160° 10 kt METAR AYPY 060700Z 16010KT 9999 SHRA SCT020 BKN030 27/25 Q1009
4:00 p. m.
V
84 °F 6¼ mi+ 7.000 ft 190° 190° 10 kt METAR AYPY 060600Z 19010KT 9999 SCT020 BKN070 29/25 Q1008
3:00 p. m.
V
84 °F 6¼ mi+ 3.500 ft 190° 190° 15 kt METAR AYPY 060500Z 19015KT 9999 SCT015 BKN035 29/25 Q1008
2:00 p. m.
V
84 °F 6¼ mi+ 10.000 ft 190° 190° 10 - 15 kt METAR AYPY 060400Z 19010G15KT 9999 HZ FEW015 SCT035 BKN100 29/25 Q1009
1:00 p. m.
V
86 °F 6¼ mi+ - 190° 190° 10 - 15 kt METAR AYPY 060300Z 19010G15KT 9999 HZ SCT030 30/25 Q1009
12:00 p. m.
V
91 °F 6¼ mi+ - 170° 170° 15 kt METAR AYPY 060200Z 17015KT 9999 HZ SCT030 SCT050 33/24 Q1009
11:00 a. m.
V
88 °F 6¼ mi+ - 150° 150° 15 kt METAR AYPY 060100Z 15015KT 9999 HZ SCT025 SCT050 31/24 Q1010
10:00 a. m.
V
86 °F 6¼ mi+ - 120° 120° 10 kt METAR AYPY 060000Z 12010KT 9999 HZ SCT035 30/24 Q1010
9:00 a. m.
V
84 °F 6¼ mi+ - Var Var 2 kt METAR AYPY 052300Z VRB02KT 9999 HZ FEW025 FEW050 29/24 Q1010
7:00 a. m.
V
73 °F 6¼ mi+ - Var Var 3 kt METAR AYPY 052100Z VRB03KT 9999 HZ FEW030 FEW050 23/23 Q1010
6:00 a. m.
V
73 °F 6¼ mi+ - Var Var 3 kt METAR AYPY 052000Z VRB03KT 9999 HZ FEW050 23/23 Q1009
5:00 a. m.
V
75 °F 6¼ mi+ - Var Var 2 kt METAR AYPY 051900Z VRB02KT 9999 FEW040 24/23 Q1008
4:00 a. m.
V
75 °F 6¼ mi+ - Var Var 4 kt METAR AYPY 051800Z VRB04KT 9999 FEW050 24/23 Q1008
3:00 a. m.
V
75 °F 6¼ mi+ - 340° 340° 5 kt METAR AYPY 051700Z 34005KT 9999 FEW040 24/23 Q1008
2:00 a. m.
V
75 °F 6¼ mi+ - Var Var 1 kt METAR AYPY 051600Z VRB01KT 9999 FEW040 24/23 Q1009
1:00 a. m.
V
75 °F 6¼ mi+ - Var Var 1 kt METAR AYPY 051500Z VRB01KT 9999 FEW040 24/23 Q1009

5 de julio de 2022

Hora Código Tiempo Temp. Visibilidad Cielo nuboso Viento METAR/SPECI
11:00 p. m.
V
77 °F 6¼ mi+ - Var Var 3 kt METAR AYPY 051300Z VRB03KT 9999 FEW050 25/23 Q1009
10:00 p. m.
V
77 °F 6¼ mi+ - Var Var 3 kt METAR AYPY 051200Z VRB03KT 9999 FEW050 25/23 Q1009
8:00 p. m.
V
81 °F 6¼ mi+ 8.000 ft Var Var 3 kt METAR AYPY 051000Z VRB03KT 9999 SCT030 BKN080 27/25 Q1009
7:00 p. m.
V
82 °F 6¼ mi+ 8.000 ft Var Var 3 kt METAR AYPY 050900Z VRB03KT 9999 SCT030 BKN080 28/25 Q1008
6:00 p. m.
V
82 °F 6¼ mi+ - 250° 250° 10 kt METAR AYPY 050800Z 25010KT 9999 HZ FEW010 SCT025 SCT040 28/25 Q1007 RMK
5:00 p. m.
V
84 °F 6¼ mi+ 5.000 ft 200° 200° 10 kt METAR AYPY 050700Z 20010KT 9999 HZ FEW010 SCT025 BKN050 29/25 Q1006 RMK/CB FM N TO E
4:00 p. m.
V
86 °F 6¼ mi+ 6.000 ft 210° 210° 10 kt METAR AYPY 050600Z 21010KT 9999 HZ FEW020 SCT030 BKN060 30/25 Q1006 RMK
3:00 p. m.
V
88 °F 6¼ mi+ 6.000 ft 210° 210° 10 kt METAR AYPY 050500Z 21010KT 9999 HZ SCT030 BKN060 31/25 Q1005 RMK/CB TO THE NW
2:00 p. m.
V
90 °F 6¼ mi+ - 240° 240° 15 kt METAR AYPY 050400Z 24015KT 9999 HZ SCT035 SCT060 32/24 Q1006
1:00 p. m.
V
91 °F 6¼ mi+ 6.000 ft 250° 250° 10 kt METAR AYPY 050300Z 25010KT 9999 HZ SCT030 BKN060 33/25 Q1006 RMK
12:00 p. m.
V
88 °F 6¼ mi+ - 230° 230° 10 kt METAR AYPY 050200Z 23010KT 9999 HZ SCT030 SCT050 31/24 Q1008
11:00 a. m.
V
88 °F 6¼ mi+ - 270° 270° 10 kt METAR AYPY 050100Z 27010KT 9999 HZ SCT030 SCT050 31/24 Q1008
10:00 a. m.
V
90 °F 6¼ mi+ - 030° 030° 7 kt METAR AYPY 050000Z 03007KT 9999 HZ FEW025 FEW050 32/23 Q1009
6:00 a. m.
V
77 °F 6¼ mi+ - Var Var 4 kt METAR AYPY 042000Z VRB04KT 9999 SCT050 25/24 Q1007 RMK
5:00 a. m.
V
75 °F 6¼ mi+ - Var Var 4 kt METAR AYPY 041900Z VRB04KT 9999 SCT050 24/24 Q1007
4:00 a. m.
V
77 °F 6¼ mi+ - 310° 310° 5 kt METAR AYPY 041800Z 31005KT 9999 SCT040 25/24 Q1007
3:00 a. m.
V
77 °F 6¼ mi+ - Var Var 3 kt METAR AYPY 041700Z VRB03KT 9999 SCT040 25/24 Q1007
2:00 a. m.
V
77 °F 6¼ mi+ - 300° 300° 5 kt METAR AYPY 041600Z 30005KT 9999 SCT050 25/24 Q1007
12:00 a. m.
V
79 °F 6¼ mi+ - 180° 180° 5 kt METAR AYPY 041400Z 18005KT 9999 SCT040 26/25 Q1008

4 de julio de 2022

Hora Código Tiempo Temp. Visibilidad Cielo nuboso Viento METAR/SPECI
11:00 p. m.
V
81 °F 6¼ mi+ - 180° 180° 5 kt METAR AYPY 041300Z 18005KT 9999 SCT040 27/26 Q1008
10:00 p. m.
V
82 °F 6¼ mi+ - 180° 180° 5 kt METAR AYPY 041200Z 18005KT 9999 FEW030 28/25 Q1008
9:00 p. m.
V
82 °F 6¼ mi+ - 190° 190° 5 kt METAR AYPY 041100Z 19005KT 9999 FEW050 28/25 Q1008
8:00 p. m.
V
82 °F 6¼ mi+ - 180° 180° 5 kt METAR AYPY 041000Z 18005KT 9999 FEW050 28/25 Q1007
Datos más antiguos

Descarga nuestra aplicación

Acceso fácil a todo el tiempo de la aviación en tu teléfono móvil y tableta.
Con muchas funciones no disponibles en el sitio web, como la compatibilidad sin conexión y una lista personal de aeropuertos.

Nosotros y terceros seguimos tu comportamiento en Internet en nuestro sitio web con cookies. Si continúas, asumimos que estás de acuerdo con nuestra política de cookies. Más información